Hollywood, FL

11:13 PM EDT on October 18, 2019 (GMT -0400)
North Perry

Weather History for KHWO - August, 2019

Change the Weather History Date:

Saturday, August 17, 2019

  Actual Average (KFLL) Record (KFLL)
Temperature  
Mean Temperature 84 °F -  
Max Temperature 93 °F 89 °F 98 °F (1924)
Min Temperature 75 °F 75 °F 66 °F (1974)
Cooling Degree Days 19    
Growing Degree Days 34 (Base 50)    
Moisture  
Dew Point 73 °F    
Average Humidity 75    
Maximum Humidity 85    
Minimum Humidity 50    
Precipitation  
Precipitation 1.31 in - - ()
Sea Level Pressure  
Sea Level Pressure 30.10 in    
Wind  
Wind Speed 5 mph (West)    
Max Wind Speed 26 mph    
Max Gust Speed 36 mph    
Visibility 8 miles    
Events Rain , Thunderstorm    
Averages and records for this station are not official NWS values.
T = Trace of Precipitation, MM = Missing Value Source: NWS Daily Summary

Daily Weather History Graph

Daily Weather History Graph

Search for Another Location

Airport or City:

Astronomy

Aug. 17, 2019 Rise Set
Actual Time 6:54 AM EDT 7:55 PM EDT
Civil Twilight 6:30 AM EDT 8:19 PM EDT
Nautical Twilight 6:02 AM EDT 8:47 PM EDT
Astronomical Twilight 5:32 AM EDT 9:16 PM EDT
Moon 9:31 PM EDT (8/17) 8:35 AM EDT (8/17)
Length of Visible Light 13h 48m
Length of Day
13h 00m
Waning Gibbous, 96% of the Moon is Illuminated
Aug 17
Waning Gibbous
Aug 23
Last Quarter
Aug 30
New
Sep 5
First Quarter
Sep 14
Full

Hourly Weather History & Observations

Time (EDT) Temp. Heat Index Dew Point Humidity Pressure Visibility Wind Dir Wind Speed Gust Speed Precip Events Conditions
12:53 AM 80.1 °F 83.6 °F 71.1 °F 74% 30.13 in 10.0 mi Calm Calm - N/A   Scattered Clouds
1:53 AM 81.0 °F 84.9 °F 71.1 °F 72% 30.11 in 10.0 mi Calm Calm - N/A   Clear
2:53 AM 80.1 °F 83.8 °F 72.0 °F 76% 30.09 in 10.0 mi Calm Calm - N/A   Clear
3:53 AM 78.1 °F - 72.0 °F 81% 30.06 in 10.0 mi North 4.6 mph - N/A   Clear
4:53 AM 79.0 °F - 72.0 °F 79% 30.06 in 10.0 mi Calm Calm - N/A   Clear
5:53 AM 78.1 °F - 72.0 °F 81% 30.08 in 10.0 mi Calm Calm - N/A   Clear
6:53 AM 77.0 °F - 72.0 °F 84% 30.08 in 10.0 mi Calm Calm - N/A   Clear
7:53 AM 81.0 °F 86.2 °F 73.9 °F 79% 30.09 in 10.0 mi Calm Calm - N/A   Clear
8:53 AM 84.9 °F 92.1 °F 73.9 °F 69% 30.09 in 10.0 mi Calm Calm - N/A   Clear
9:53 AM 87.1 °F 95.4 °F 73.9 °F 65% 30.11 in 10.0 mi South 8.1 mph - N/A   Clear
10:53 AM 90.0 °F 100.2 °F 75.0 °F 61% 30.11 in 10.0 mi SSW 8.1 mph - N/A   Partly Cloudy
11:53 AM 93.0 °F 101.9 °F 73.0 °F 52% 30.12 in 10.0 mi SSW 6.9 mph 16.1 mph N/A   Scattered Clouds
12:53 PM 93.0 °F 100.7 °F 72.0 °F 50% 30.10 in 10.0 mi Variable 5.8 mph - N/A   Mostly Cloudy
1:39 PM 82.9 °F 90.8 °F 75.9 °F 79% 30.11 in 2.5 mi SSE 5.8 mph - 0.07 in Rain , Thunderstorm Heavy Thunderstorms and Rain
1:44 PM 82.0 °F 88.6 °F 75.0 °F 79% 30.11 in 1.0 mi WSW 19.6 mph 27.6 mph 0.26 in Rain , Thunderstorm Heavy Thunderstorms and Rain
1:48 PM 78.8 °F - 71.6 °F 78% 30.11 in 0.2 mi West 26.5 mph 31.1 mph 0.60 in Rain , Thunderstorm Heavy Thunderstorms and Rain
1:53 PM 75.9 °F - 70.0 °F 82% 30.12 in 0.2 mi WNW 20.7 mph 33.4 mph 0.96 in Rain , Thunderstorm Heavy Thunderstorms and Rain
2:01 PM 75.9 °F - 71.1 °F 85% 30.12 in 0.5 mi NNW 24.2 mph - 0.18 in Rain , Thunderstorm Heavy Thunderstorms and Rain
2:07 PM 77.0 °F - 72.0 °F 84% 30.12 in 1.2 mi NW 20.7 mph 35.7 mph 0.25 in Rain , Thunderstorm Heavy Thunderstorms and Rain
2:16 PM 77.0 °F - 72.0 °F 84% 30.13 in 2.5 mi North 8.1 mph 32.2 mph 0.29 in Rain , Thunderstorm Thunderstorms and Rain
2:23 PM 77.0 °F - 72.0 °F 84% 30.12 in 6.0 mi NE 5.8 mph - 0.29 in Rain , Thunderstorm Light Thunderstorms and Rain
2:48 PM 77.0 °F - 69.8 °F 78% 30.11 in 6.0 mi WNW 9.2 mph - 0.35 in Rain , Thunderstorm Light Rain
2:53 PM 77.0 °F - 71.1 °F 82% 30.10 in 10.0 mi West 9.2 mph - 0.35 in Rain , Thunderstorm Light Rain
3:04 PM 80.1 °F 84.2 °F 73.0 °F 79% 30.10 in 10.0 mi West 9.2 mph - 0.00 in Rain Light Rain
3:53 PM 84.9 °F 92.1 °F 73.9 °F 69% 30.08 in 10.0 mi Calm Calm - 0.00 in   Clear
4:53 PM 90.0 °F 100.2 °F 75.0 °F 61% 30.07 in 10.0 mi Calm Calm - N/A   Partly Cloudy
5:53 PM 88.0 °F 96.5 °F 73.9 °F 63% 30.06 in 10.0 mi ESE 6.9 mph - N/A   Partly Cloudy
6:53 PM 87.1 °F 95.4 °F 73.9 °F 65% 30.06 in 10.0 mi ESE 8.1 mph - N/A   Clear
7:53 PM 86.0 °F 95.1 °F 75.0 °F 70% 30.08 in 10.0 mi ESE 4.6 mph - N/A   Scattered Clouds
8:53 PM 82.9 °F 90.8 °F 75.9 °F 79% 30.10 in 10.0 mi WNW 3.5 mph - N/A   Partly Cloudy
9:53 PM 82.9 °F 90.8 °F 75.9 °F 79% 30.12 in 10.0 mi Calm Calm - N/A   Mostly Cloudy
10:53 PM 82.0 °F 88.6 °F 75.0 °F 79% 30.13 in 10.0 mi Calm Calm - N/A   Clear
11:53 PM 82.0 °F 88.6 °F 75.0 °F 79% 30.12 in 10.0 mi Calm Calm - N/A   Clear